When you browse on this site, cookies collect data to enhance your experience and personalize the content and advertising you see.
Visit our Privacy Policy to learn more. By continuing to use the site, you agree to this use of cookies and data.
  • In Austria
  • List of Countries
  • For 7 days
  • Water Temperature
  • Satellite Maps
  • Weather Map
  • News
  • Weather Widgets
  • user-avatar
    Login

    Hourly Weather Granica

    Today, 21 May, Tuesday

    Time Temperature Precipitation Wind Pressure Humidity
    00:00 +16°C° 0 mm 3 mps 745 mmHg 85%
    01:00 +15°C° 0 mm 2 mps 744 mmHg 86%
    02:00 +15°C° 0 mm 2 mps 745 mmHg 87%
    03:00 +14°C° 0 mm 2 mps 745 mmHg 88%
    04:00 +14°C° 0 mm 1 mps 745 mmHg 89%
    05:00 +15°C° 0 mm 1 mps 745 mmHg 85%
    06:00 +18°C° 0 mm 1 mps 744 mmHg 81%
    07:00 +19°C° 0 mm 1 mps 744 mmHg 77%
    08:00 +19°C° 0.5 mm 2 mps 744 mmHg 77%
    09:00 +20°C° 0.5 mm 3 mps 744 mmHg 77%
    10:00 +21°C° 0.5 mm 3 mps 744 mmHg 77%
    11:00 +21°C° 1 mm 4 mps 744 mmHg 74%
    12:00 +22°C° 1 mm 4 mps 743 mmHg 72%
    13:00 +22°C° 1 mm 5 mps 743 mmHg 69%
    14:00 +22°C° 0.5 mm 5 mps 743 mmHg 69%
    15:00 +22°C° 0.5 mm 5 mps 742 mmHg 69%
    16:00 +22°C° 0.5 mm 5 mps 742 mmHg 69%
    17:00 +20°C° 0 mm 5 mps 742 mmHg 72%
    18:00 +17°C° 0 mm 5 mps 742 mmHg 75%
    19:00 +16°C° 0 mm 5 mps 742 mmHg 77%
    20:00 +15°C° 0 mm 5 mps 742 mmHg 79%
    21:00 +14°C° 0 mm 5 mps 742 mmHg 81%
    22:00 +14°C° 0 mm 4 mps 742 mmHg 83%
    23:00 +14°C° 0 mm 4 mps 742 mmHg 84%

    Tomorrow, 22 May, Wednesday

    Time Temperature Precipitation Wind Pressure Humidity
    00:00 +14°C° 0 mm 4 mps 742 mmHg 86%
    01:00 +14°C° 0 mm 4 mps 743 mmHg 88%
    02:00 +14°C° 0 mm 4 mps 743 mmHg 89%
    03:00 +14°C° 0 mm 4 mps 743 mmHg 90%
    04:00 +14°C° 0 mm 3 mps 743 mmHg 91%
    05:00 +14°C° 0 mm 4 mps 743 mmHg 89%
    06:00 +15°C° 0 mm 4 mps 743 mmHg 87%
    07:00 +15°C° 0 mm 4 mps 743 mmHg 85%
    08:00 +17°C° 0.1 mm 4 mps 743 mmHg 82%
    09:00 +16°C° 0.1 mm 5 mps 744 mmHg 79%
    10:00 +17°C° 0.1 mm 5 mps 744 mmHg 76%
    11:00 +19°C° 0.2 mm 5 mps 744 mmHg 73%
    12:00 +19°C° 0.2 mm 5 mps 744 mmHg 71%
    13:00 +20°C° 0.2 mm 5 mps 744 mmHg 68%
    14:00 +20°C° 0.4 mm 4 mps 744 mmHg 68%
    15:00 +20°C° 0.4 mm 4 mps 744 mmHg 67%
    16:00 +21°C° 0.4 mm 4 mps 744 mmHg 66%
    17:00 +20°C° 0.1 mm 3 mps 744 mmHg 70%
    18:00 +19°C° 0.1 mm 3 mps 744 mmHg 75%
    19:00 +18°C° 0.1 mm 2 mps 744 mmHg 79%
    20:00 +17°C° 0 mm 2 mps 744 mmHg 82%
    21:00 +16°C° 0 mm 2 mps 745 mmHg 86%
    22:00 +15°C° 0 mm 2 mps 745 mmHg 89%
    23:00 +15°C° 0 mm 1 mps 745 mmHg 90%

    Day after tomorrow, 23 May, Thursday

    Time Temperature Precipitation Wind Pressure Humidity
    00:00 +14°C° 0 mm 1 mps 746 mmHg 91%
    01:00 +14°C° 0 mm 1 mps 746 mmHg 92%
    02:00 +14°C° 0 mm 1 mps 746 mmHg 92%
    03:00 +14°C° 0 mm 1 mps 746 mmHg 93%
    04:00 +13°C° 0 mm 2 mps 746 mmHg 94%
    05:00 +14°C° 0.1 mm 2 mps 747 mmHg 91%
    06:00 +16°C° 0.1 mm 3 mps 747 mmHg 89%
    07:00 +17°C° 0.1 mm 3 mps 748 mmHg 86%
    08:00 +17°C° 0.3 mm 4 mps 748 mmHg 85%
    09:00 +16°C° 0.3 mm 5 mps 748 mmHg 84%
    10:00 +17°C° 0.3 mm 5 mps 748 mmHg 83%
    11:00 +17°C° 0.1 mm 6 mps 748 mmHg 83%
    12:00 +17°C° 0.1 mm 6 mps 749 mmHg 82%
    13:00 +17°C° 0.1 mm 6 mps 749 mmHg 82%
    14:00 +16°C° 0.1 mm 6 mps 749 mmHg 82%
    15:00 +16°C° 0.1 mm 6 mps 749 mmHg 83%
    16:00 +16°C° 0.1 mm 6 mps 749 mmHg 83%
    17:00 +15°C° 0.1 mm 6 mps 750 mmHg 84%
    18:00 +15°C° 0.1 mm 5 mps 750 mmHg 84%
    19:00 +14°C° 0.1 mm 5 mps 750 mmHg 84%
    20:00 +14°C° 0 mm 5 mps 750 mmHg 82%
    21:00 +13°C° 0 mm 5 mps 751 mmHg 80%
    22:00 +12°C° 0 mm 5 mps 751 mmHg 78%
    23:00 +12°C° 0 mm 5 mps 751 mmHg 76%

    24 May, Friday

    Time Temperature Precipitation Wind Pressure Humidity
    00:00 +12°C° 0 mm 4 mps 751 mmHg 74%
    01:00 +11°C° 0 mm 4 mps 751 mmHg 72%
    02:00 +10°C° 0 mm 4 mps 751 mmHg 74%
    03:00 +10°C° 0 mm 4 mps 751 mmHg 75%
    04:00 +8°C° 0 mm 4 mps 751 mmHg 76%
    05:00 +10°C° 0 mm 4 mps 751 mmHg 75%
    06:00 +11°C° 0 mm 4 mps 751 mmHg 75%
    07:00 +11°C° 0 mm 4 mps 751 mmHg 74%
    08:00 +13°C° 0 mm 4 mps 751 mmHg 69%
    09:00 +15°C° 0 mm 4 mps 751 mmHg 64%
    10:00 +18°C° 0 mm 4 mps 751 mmHg 58%
    11:00 +19°C° 0 mm 4 mps 750 mmHg 55%
    12:00 +19°C° 0 mm 5 mps 750 mmHg 52%
    13:00 +20°C° 0 mm 5 mps 750 mmHg 49%
    14:00 +20°C° 0 mm 4 mps 749 mmHg 50%
    15:00 +20°C° 0 mm 4 mps 749 mmHg 50%
    16:00 +20°C° 0 mm 4 mps 749 mmHg 51%
    17:00 +19°C° 0 mm 3 mps 749 mmHg 58%
    18:00 +18°C° 0 mm 3 mps 749 mmHg 65%
    19:00 +17°C° 0 mm 2 mps 748 mmHg 72%
    20:00 +16°C° 0 mm 2 mps 749 mmHg 75%
    21:00 +15°C° 0 mm 2 mps 749 mmHg 78%
    22:00 +14°C° 0 mm 2 mps 749 mmHg 82%
    23:00 +14°C° 0 mm 2 mps 749 mmHg 84%

    25 May, Saturday

    Time Temperature Precipitation Wind Pressure Humidity
    00:00 +13°C° 0 mm 2 mps 749 mmHg 86%
    01:00 +13°C° 0 mm 2 mps 748 mmHg 87%
    02:00 +12°C° 0 mm 2 mps 748 mmHg 88%
    03:00 +12°C° 0 mm 2 mps 748 mmHg 89%
    04:00 +12°C° 0 mm 2 mps 748 mmHg 89%
    05:00 +14°C° 0 mm 2 mps 748 mmHg 83%
    06:00 +14°C° 0 mm 3 mps 748 mmHg 78%
    07:00 +17°C° 0 mm 3 mps 748 mmHg 72%
    08:00 +18°C° 0 mm 4 mps 748 mmHg 67%
    09:00 +19°C° 0 mm 4 mps 747 mmHg 61%
    10:00 +21°C° 0 mm 5 mps 747 mmHg 56%
    11:00 +21°C° 0.8 mm 5 mps 747 mmHg 59%
    12:00 +21°C° 0.8 mm 5 mps 747 mmHg 62%
    13:00 +21°C° 0.8 mm 6 mps 747 mmHg 65%
    14:00 +21°C° 0.3 mm 5 mps 747 mmHg 63%
    15:00 +21°C° 0.3 mm 5 mps 747 mmHg 61%
    16:00 +21°C° 0.3 mm 5 mps 746 mmHg 60%
    17:00 +20°C° 0.1 mm 4 mps 746 mmHg 65%
    18:00 +19°C° 0.1 mm 3 mps 747 mmHg 71%
    19:00 +18°C° 0.1 mm 2 mps 747 mmHg 77%
    20:00 +17°C° 0 mm 2 mps 747 mmHg 79%
    21:00 +16°C° 0 mm 2 mps 747 mmHg 82%
    22:00 +15°C° 0 mm 2 mps 748 mmHg 85%
    23:00 +14°C° 0 mm 2 mps 748 mmHg 86%

    26 May, Sunday

    Time Temperature Precipitation Wind Pressure Humidity
    00:00 +14°C° 0 mm 2 mps 748 mmHg 88%
    01:00 +13°C° 0 mm 2 mps 748 mmHg 89%
    02:00 +12°C° 0 mm 2 mps 748 mmHg 89%
    03:00 +12°C° 0 mm 2 mps 748 mmHg 89%
    04:00 +12°C° 0 mm 2 mps 748 mmHg 89%
    05:00 +12°C° 0.1 mm 2 mps 748 mmHg 86%
    06:00 +12°C° 0.1 mm 2 mps 748 mmHg 83%
    07:00 +13°C° 0.1 mm 2 mps 749 mmHg 80%
    08:00 +14°C° 0.1 mm 2 mps 749 mmHg 75%
    09:00 +14°C° 0.1 mm 3 mps 748 mmHg 70%
    10:00 +16°C° 0.1 mm 3 mps 748 mmHg 64%
    11:00 +18°C° 0.1 mm 3 mps 748 mmHg 62%
    12:00 +19°C° 0.1 mm 4 mps 748 mmHg 59%
    13:00 +20°C° 0.1 mm 5 mps 748 mmHg 57%
    14:00 +20°C° 0.8 mm 5 mps 748 mmHg 61%
    15:00 +19°C° 0.8 mm 6 mps 748 mmHg 65%
    16:00 +17°C° 0.8 mm 7 mps 747 mmHg 70%
    17:00 +16°C° 0 mm 6 mps 748 mmHg 71%
    18:00 +14°C° 0 mm 5 mps 748 mmHg 73%
    19:00 +13°C° 0 mm 4 mps 748 mmHg 74%
    20:00 +12°C° 0 mm 4 mps 749 mmHg 77%
    21:00 +11°C° 0 mm 4 mps 749 mmHg 81%
    22:00 +10°C° 0 mm 3 mps 749 mmHg 84%
    23:00 +10°C° 0 mm 3 mps 750 mmHg 85%
    Show more